Time,TemperatureF,DewpointF,PressureIn,WindDirection,WindDirectionDegrees,WindSpeedMPH,WindSpeedGustMPH,Humidity,HourlyPrecipIn,Conditions,Clouds,dailyrainin,SoftwareType,DateUTC
2013-01-23 00:01:00,2.8,-5.3,28.19,WSW,244,0.0,9.0,68,0.00,,,1.62,WUHU216DAVISWMX,2013-01-23 05:01:00,
2013-01-23 00:02:00,2.8,-5.3,28.19,WSW,244,0.0,6.0,68,0.00,,,1.62,WUHU216DAVISWMX,2013-01-23 05:02:00,
2013-01-23 00:03:00,2.8,-5.3,28.19,WSW,244,0.0,6.0,68,0.00,,,1.62,WUHU216DAVISWMX,2013-01-23 05:03:00,
2013-01-23 00:08:00,2.8,-5.3,28.19,WSW,244,0.0,0.0,68,0.00,,,1.62,WUHU216DAVISWMX,2013-01-23 05:08:00,
2013-01-23 00:13:00,2.8,-5.3,28.19,WSW,244,0.0,0.0,68,0.00,,,1.62,WUHU216DAVISWMX,2013-01-23 05:13:00,
2013-01-23 00:18:00,2.8,-5.3,28.19,WSW,244,0.0,0.0,68,0.00,,,1.62,WUHU216DAVISWMX,2013-01-23 05:18:00,
2013-01-23 00:23:00,2.8,-5.3,28.19,WSW,244,0.0,0.0,68,0.00,,,1.62,WUHU216DAVISWMX,2013-01-23 05:23:00,
2013-01-23 00:28:00,2.8,-5.3,28.19,WSW,244,0.0,0.0,68,0.00,,,1.62,WUHU216DAVISWMX,2013-01-23 05:28:00,
2013-01-23 00:31:00,2.8,-5.3,28.19,WSW,244,0.0,0.0,68,0.00,,,1.62,WUHU216DAVISWMX,2013-01-23 05:31:00,
2013-01-23 00:33:00,2.8,-5.3,28.19,WSW,244,0.0,0.0,68,0.00,,,1.62,WUHU216DAVISWMX,2013-01-23 05:33:00,
2013-01-23 00:38:00,2.8,-5.3,28.19,WSW,244,0.0,0.0,68,0.00,,,1.62,WUHU216DAVISWMX,2013-01-23 05:38:00,
2013-01-23 01:10:00,2.6,-5.2,28.19,SW,231,0.0,0.0,69,0.00,,,1.62,WUHU216DAVISWMX,2013-01-23 06:10:00,
2013-01-23 01:15:00,2.7,-5.1,28.19,SW,228,7.0,9.0,69,0.00,,,1.62,WUHU216DAVISWMX,2013-01-23 06:15:00,
2013-01-23 01:20:00,2.7,-5.1,28.19,WSW,247,6.0,14.0,69,0.00,,,1.62,WUHU216DAVISWMX,2013-01-23 06:20:00,
2013-01-23 01:25:00,2.7,-5.1,28.19,WSW,243,3.0,14.0,69,0.00,,,1.62,WUHU216DAVISWMX,2013-01-23 06:25:00,
2013-01-23 01:30:00,2.4,-5.4,28.19,SW,236,2.0,17.0,69,0.00,,,1.62,WUHU216DAVISWMX,2013-01-23 06:30:00,
2013-01-23 01:35:00,2.4,-5.4,28.19,SW,236,1.0,17.0,69,0.00,,,1.62,WUHU216DAVISWMX,2013-01-23 06:35:00,
2013-01-23 01:40:00,2.4,-5.4,28.19,WSW,237,0.0,9.0,69,0.00,,,1.62,WUHU216DAVISWMX,2013-01-23 06:40:00,
2013-01-23 01:45:00,2.4,-5.4,28.19,WSW,237,0.0,6.0,69,0.00,,,1.62,WUHU216DAVISWMX,2013-01-23 06:45:00,
2013-01-23 01:50:00,2.4,-5.4,28.20,WSW,237,0.0,0.0,69,0.00,,,1.62,WUHU216DAVISWMX,2013-01-23 06:50:00,
2013-01-23 01:55:00,2.5,-5.3,28.19,WSW,237,0.0,0.0,69,0.00,,,1.62,WUHU216DAVISWMX,2013-01-23 06:55:00,
2013-01-23 02:00:00,2.4,-5.4,28.20,WSW,237,0.0,0.0,69,0.00,,,1.62,WUHU216DAVISWMX,2013-01-23 07:00:00,
2013-01-23 02:05:00,2.4,-5.4,28.20,WSW,237,0.0,0.0,69,0.00,,,1.62,WUHU216DAVISWMX,2013-01-23 07:05:00,
2013-01-23 02:06:00,2.4,-5.1,28.20,West,264,0.0,0.0,70,0.00,,,1.62,WUHU216DAVISWMX,2013-01-23 07:06:00,
2013-01-23 02:10:00,2.4,-5.1,28.20,West,264,0.0,0.0,70,0.00,,,1.62,WUHU216DAVISWMX,2013-01-23 07:10:00,
2013-01-23 02:15:00,2.4,-5.1,28.20,West,264,0.0,0.0,70,0.00,,,1.62,WUHU216DAVISWMX,2013-01-23 07:15:00,
2013-01-23 02:42:00,1.9,-7.1,28.20,West,266,0.0,0.0,65,0.00,,,1.62,WUHU216DAVISWMX,2013-01-23 07:42:00,
2013-01-23 02:47:00,1.7,-7.3,28.20,WSW,258,9.0,12.0,65,0.00,,,1.62,WUHU216DAVISWMX,2013-01-23 07:47:00,
2013-01-23 02:52:00,1.5,-7.2,28.20,WSW,242,6.0,14.0,66,0.00,,,1.62,WUHU216DAVISWMX,2013-01-23 07:52:00,
2013-01-23 02:57:00,1.5,-7.5,28.20,WSW,254,5.0,14.0,65,0.00,,,1.62,WUHU216DAVISWMX,2013-01-23 07:57:00,
2013-01-23 03:02:00,1.5,-7.5,28.20,WSW,244,9.0,12.0,65,0.00,,,1.62,WUHU216DAVISWMX,2013-01-23 08:02:00,
2013-01-23 03:07:00,1.5,-7.5,28.20,SW,232,4.0,12.0,65,0.00,,,1.62,WUHU216DAVISWMX,2013-01-23 08:07:00,
2013-01-23 03:12:00,1.3,-7.7,28.21,SW,233,4.0,12.0,65,0.00,,,1.62,WUHU216DAVISWMX,2013-01-23 08:12:00,
2013-01-23 03:17:00,1.3,-7.7,28.21,SSW,209,5.0,12.0,65,0.00,,,1.62,WUHU216DAVISWMX,2013-01-23 08:17:00,
2013-01-23 03:22:00,1.3,-8.0,28.21,WSW,243,7.0,14.0,64,0.00,,,1.62,WUHU216DAVISWMX,2013-01-23 08:22:00,
2013-01-23 03:27:00,1.2,-8.1,28.20,WSW,245,7.0,14.0,64,0.00,,,1.62,WUHU216DAVISWMX,2013-01-23 08:27:00,
2013-01-23 03:32:00,1.2,-8.4,28.21,SW,223,3.0,14.0,63,0.00,,,1.62,WUHU216DAVISWMX,2013-01-23 08:32:00,
2013-01-23 03:37:00,1.0,-8.6,28.20,SW,231,9.0,14.0,63,0.00,,,1.62,WUHU216DAVISWMX,2013-01-23 08:37:00,
2013-01-23 03:42:00,1.0,-8.6,28.20,WSW,245,5.0,12.0,63,0.00,,,1.62,WUHU216DAVISWMX,2013-01-23 08:42:00,
2013-01-23 03:47:00,0.9,-8.7,28.20,SW,226,6.0,9.0,63,0.00,,,1.62,WUHU216DAVISWMX,2013-01-23 08:47:00,
2013-01-23 03:52:00,0.9,-8.7,28.20,WSW,239,6.0,9.0,63,0.00,,,1.62,WUHU216DAVISWMX,2013-01-23 08:52:00,
2013-01-23 03:57:00,0.9,-8.7,28.21,WSW,240,0.0,11.0,63,0.00,,,1.62,WUHU216DAVISWMX,2013-01-23 08:57:00,
2013-01-23 04:02:00,0.9,-9.0,28.20,WSW,239,0.0,11.0,62,0.00,,,1.62,WUHU216DAVISWMX,2013-01-23 09:02:00,
2013-01-23 04:07:00,0.9,-9.0,28.21,WSW,239,0.0,0.0,62,0.00,,,1.62,WUHU216DAVISWMX,2013-01-23 09:07:00,
2013-01-23 04:12:00,0.9,-8.7,28.21,WSW,240,0.0,0.0,63,0.00,,,1.62,WUHU216DAVISWMX,2013-01-23 09:12:00,
2013-01-23 04:17:00,0.9,-8.7,28.21,WSW,240,0.0,0.0,63,0.00,,,1.62,WUHU216DAVISWMX,2013-01-23 09:17:00,
2013-01-23 04:22:00,0.9,-8.7,28.20,WSW,239,0.0,0.0,63,0.00,,,1.62,WUHU216DAVISWMX,2013-01-23 09:22:00,
2013-01-23 04:23:00,0.9,-8.7,28.20,WSW,239,0.0,0.0,63,0.00,,,1.62,WUHU216DAVISWMX,2013-01-23 09:23:00,
2013-01-23 04:27:00,0.9,-8.7,28.20,WSW,239,0.0,0.0,63,0.00,,,1.62,WUHU216DAVISWMX,2013-01-23 09:27:00,
2013-01-23 04:32:00,0.9,-8.7,28.20,WSW,239,0.0,0.0,63,0.00,,,1.62,WUHU216DAVISWMX,2013-01-23 09:32:00,
2013-01-23 04:50:00,0.4,-8.5,28.20,West,265,5.0,5.0,65,0.00,,,1.62,WUHU216DAVISWMX,2013-01-23 09:50:00,
2013-01-23 04:55:00,0.3,-8.6,28.20,WSW,245,7.0,7.0,65,0.00,,,1.62,WUHU216DAVISWMX,2013-01-23 09:55:00,
2013-01-23 05:00:00,0.3,-9.0,28.20,SW,219,6.0,8.0,64,0.00,,,1.62,WUHU216DAVISWMX,2013-01-23 10:00:00,
2013-01-23 05:05:00,0.3,-9.0,28.20,WSW,238,5.0,9.0,64,0.00,,,1.62,WUHU216DAVISWMX,2013-01-23 10:05:00,
2013-01-23 05:10:00,0.3,-9.3,28.20,SW,218,8.0,10.0,63,0.00,,,1.62,WUHU216DAVISWMX,2013-01-23 10:10:00,
2013-01-23 05:15:00,0.3,-9.0,28.20,SW,236,7.0,11.0,64,0.00,,,1.62,WUHU216DAVISWMX,2013-01-23 10:15:00,
2013-01-23 05:20:00,0.3,-9.3,28.20,WSW,244,7.0,11.0,63,0.00,,,1.62,WUHU216DAVISWMX,2013-01-23 10:20:00,
2013-01-23 05:25:00,0.2,-9.4,28.20,WSW,240,12.0,12.0,63,0.00,,,1.62,WUHU216DAVISWMX,2013-01-23 10:25:00,
2013-01-23 05:30:00,0.3,-9.3,28.20,SW,226,4.0,12.0,63,0.00,,,1.62,WUHU216DAVISWMX,2013-01-23 10:30:00,
2013-01-23 05:35:00,0.3,-9.3,28.20,SW,230,3.0,12.0,63,0.00,,,1.62,WUHU216DAVISWMX,2013-01-23 10:35:00,
2013-01-23 05:40:00,0.2,-9.4,28.20,SW,233,4.0,7.0,63,0.00,,,1.62,WUHU216DAVISWMX,2013-01-23 10:40:00,
2013-01-23 05:45:00,0.0,-9.2,28.21,WSW,245,6.0,9.0,64,0.00,,,1.62,WUHU216DAVISWMX,2013-01-23 10:45:00,
2013-01-23 05:50:00,0.1,-9.1,28.21,SW,222,5.0,9.0,64,0.00,,,1.62,WUHU216DAVISWMX,2013-01-23 10:50:00,
2013-01-23 05:55:00,0.2,-9.1,28.21,WSW,239,0.0,8.0,64,0.00,,,1.62,WUHU216DAVISWMX,2013-01-23 10:55:00,
2013-01-23 06:00:00,0.0,-8.9,28.21,WSW,240,2.0,7.0,65,0.00,,,1.62,WUHU216DAVISWMX,2013-01-23 11:00:00,
2013-01-23 06:05:00,0.0,-9.2,28.21,SW,236,5.0,8.0,64,0.00,,,1.62,WUHU216DAVISWMX,2013-01-23 11:05:00,
2013-01-23 06:10:00,0.0,-8.9,28.21,WSW,251,3.0,8.0,65,0.00,,,1.62,WUHU216DAVISWMX,2013-01-23 11:10:00,
2013-01-23 06:15:00,0.2,-8.7,28.21,WSW,249,0.0,7.0,65,0.00,,,1.62,WUHU216DAVISWMX,2013-01-23 11:15:00,
2013-01-23 06:20:00,0.1,-8.8,28.22,WSW,239,1.0,8.0,65,0.00,,,1.62,WUHU216DAVISWMX,2013-01-23 11:20:00,
2013-01-23 06:25:00,0.2,-8.7,28.21,WSW,243,0.0,8.0,65,0.00,,,1.62,WUHU216DAVISWMX,2013-01-23 11:25:00,
2013-01-23 06:30:00,0.2,-8.7,28.22,WSW,243,0.0,6.0,65,0.00,,,1.62,WUHU216DAVISWMX,2013-01-23 11:30:00,
2013-01-23 06:35:00,0.1,-9.1,28.22,WSW,244,1.0,6.0,64,0.00,,,1.62,WUHU216DAVISWMX,2013-01-23 11:35:00,
2013-01-23 06:40:00,0.2,-8.7,28.22,WSW,243,0.0,6.0,65,0.00,,,1.62,WUHU216DAVISWMX,2013-01-23 11:40:00,
2013-01-23 06:45:00,0.3,-8.3,28.22,WSW,244,0.0,5.0,66,0.00,,,1.62,WUHU216DAVISWMX,2013-01-23 11:45:00,
2013-01-23 06:50:00,0.3,-8.6,28.22,WSW,243,7.0,7.0,65,0.00,,,1.62,WUHU216DAVISWMX,2013-01-23 11:50:00,
2013-01-23 06:55:00,0.5,-8.1,28.21,WSW,238,5.0,8.0,66,0.00,,,1.62,WUHU216DAVISWMX,2013-01-23 11:55:00,
2013-01-23 07:00:00,0.4,-8.5,28.22,SW,235,15.0,15.0,65,0.00,,,1.62,WUHU216DAVISWMX,2013-01-23 12:00:00,
2013-01-23 07:05:00,0.7,-7.9,28.21,WSW,240,7.0,15.0,66,0.00,,,1.62,WUHU216DAVISWMX,2013-01-23 12:05:00,
2013-01-23 07:10:00,0.7,-7.9,28.22,SW,235,3.0,13.0,66,0.00,,,1.62,WUHU216DAVISWMX,2013-01-23 12:10:00,
2013-01-23 07:15:00,0.7,-8.3,28.22,WSW,239,0.0,9.0,65,0.00,,,1.62,WUHU216DAVISWMX,2013-01-23 12:15:00,
2013-01-23 07:20:00,0.7,-7.9,28.22,WSW,246,2.0,7.0,66,0.00,,,1.62,WUHU216DAVISWMX,2013-01-23 12:20:00,
2013-01-23 07:25:00,0.6,-8.0,28.22,WSW,241,2.0,10.0,66,0.00,,,1.62,WUHU216DAVISWMX,2013-01-23 12:25:00,
2013-01-23 07:30:00,0.6,-8.0,28.22,WSW,247,4.0,11.0,66,0.00,,,1.62,WUHU216DAVISWMX,2013-01-23 12:30:00,
2013-01-23 07:35:00,0.7,-8.3,28.22,SW,222,2.0,11.0,65,0.00,,,1.62,WUHU216DAVISWMX,2013-01-23 12:35:00,
2013-01-23 07:40:00,0.4,-8.5,28.22,West,260,7.0,9.0,65,0.00,,,1.62,WUHU216DAVISWMX,2013-01-23 12:40:00,
2013-01-23 07:45:00,0.6,-8.4,28.22,WSW,247,0.0,9.0,65,0.00,,,1.62,WUHU216DAVISWMX,2013-01-23 12:45:00,
2013-01-23 07:50:00,0.6,-8.4,28.22,WSW,247,4.0,11.0,65,0.00,,,1.62,WUHU216DAVISWMX,2013-01-23 12:50:00,
2013-01-23 07:55:00,0.6,-8.4,28.22,WSW,241,8.0,16.0,65,0.00,,,1.62,WUHU216DAVISWMX,2013-01-23 12:55:00,
2013-01-23 08:00:00,0.8,-8.5,28.22,SW,226,0.0,16.0,64,0.00,,,1.62,WUHU216DAVISWMX,2013-01-23 13:00:00,
2013-01-23 08:05:00,0.8,-8.5,28.22,WSW,237,11.0,12.0,64,0.00,,,1.62,WUHU216DAVISWMX,2013-01-23 13:05:00,
2013-01-23 08:10:00,0.8,-8.5,28.22,SW,233,7.0,12.0,64,0.00,,,1.62,WUHU216DAVISWMX,2013-01-23 13:10:00,
2013-01-23 08:15:00,0.8,-8.5,28.22,SW,218,2.0,12.0,64,0.00,,,1.62,WUHU216DAVISWMX,2013-01-23 13:15:00,
2013-01-23 08:20:00,0.9,-8.7,28.22,SW,225,2.0,9.0,63,0.00,,,1.62,WUHU216DAVISWMX,2013-01-23 13:20:00,
2013-01-23 08:25:00,1.0,-8.3,28.22,SW,224,2.0,7.0,64,0.00,,,1.62,WUHU216DAVISWMX,2013-01-23 13:25:00,
2013-01-23 08:30:00,1.0,-8.6,28.22,WSW,241,0.0,8.0,63,0.00,,,1.62,WUHU216DAVISWMX,2013-01-23 13:30:00,
2013-01-23 08:35:00,1.2,-8.1,28.22,WSW,249,4.0,8.0,64,0.00,,,1.62,WUHU216DAVISWMX,2013-01-23 13:35:00,
2013-01-23 08:40:00,1.2,-8.1,28.23,SW,218,0.0,11.0,64,0.00,,,1.62,WUHU216DAVISWMX,2013-01-23 13:40:00,
2013-01-23 08:45:00,1.2,-8.4,28.23,SW,218,0.0,11.0,63,0.00,,,1.62,WUHU216DAVISWMX,2013-01-23 13:45:00,
2013-01-23 08:50:00,1.2,-8.4,28.23,SW,218,0.0,0.0,63,0.00,,,1.62,WUHU216DAVISWMX,2013-01-23 13:50:00,
2013-01-23 08:55:00,1.2,-8.1,28.23,SW,218,0.0,0.0,64,0.00,,,1.62,WUHU216DAVISWMX,2013-01-23 13:55:00,
2013-01-23 09:00:00,1.1,-8.2,28.23,SW,218,0.0,0.0,64,0.00,,,1.62,WUHU216DAVISWMX,2013-01-23 14:00:00,
2013-01-23 09:05:00,1.3,-8.0,28.24,SW,218,0.0,0.0,64,0.00,,,1.62,WUHU216DAVISWMX,2013-01-23 14:05:00,
2013-01-23 09:07:00,1.2,-8.1,28.24,SW,218,0.0,0.0,64,0.00,,,1.62,WUHU216DAVISWMX,2013-01-23 14:07:00,
2013-01-23 09:10:00,1.2,-8.1,28.24,SW,218,0.0,0.0,64,0.00,,,1.62,WUHU216DAVISWMX,2013-01-23 14:10:00,
2013-01-23 09:15:00,1.2,-8.1,28.24,SW,218,0.0,0.0,64,0.00,,,1.62,WUHU216DAVISWMX,2013-01-23 14:15:00,
2013-01-23 09:53:00,3.3,-7.8,28.24,SW,220,10.0,10.0,59,0.00,,,1.62,WUHU216DAVISWMX,2013-01-23 14:53:00,
2013-01-23 09:58:00,3.3,-7.8,28.24,SW,232,9.0,16.0,59,0.00,,,1.62,WUHU216DAVISWMX,2013-01-23 14:58:00,
2013-01-23 10:03:00,3.3,-7.8,28.24,WSW,244,5.0,16.0,59,0.00,,,1.62,WUHU216DAVISWMX,2013-01-23 15:03:00,
2013-01-23 10:08:00,3.1,-8.0,28.25,WSW,251,7.0,15.0,59,0.00,,,1.62,WUHU216DAVISWMX,2013-01-23 15:08:00,
2013-01-23 10:13:00,3.1,-8.0,28.24,WSW,253,4.0,15.0,59,0.00,,,1.62,WUHU216DAVISWMX,2013-01-23 15:13:00,
2013-01-23 10:18:00,3.0,-8.1,28.24,WSW,255,0.0,11.0,59,0.00,,,1.62,WUHU216DAVISWMX,2013-01-23 15:18:00,
2013-01-23 10:23:00,2.8,-8.3,28.24,WSW,256,0.0,4.0,59,0.00,,,1.62,WUHU216DAVISWMX,2013-01-23 15:23:00,
2013-01-23 10:28:00,2.7,-8.4,28.24,WSW,256,0.0,0.0,59,0.00,,,1.62,WUHU216DAVISWMX,2013-01-23 15:28:00,
2013-01-23 10:33:00,2.5,-8.5,28.24,WSW,257,0.0,0.0,59,0.00,,,1.62,WUHU216DAVISWMX,2013-01-23 15:33:00,
2013-01-23 10:38:00,4.6,-6.6,28.23,WSW,251,0.0,0.0,59,0.00,,,1.62,WUHU216DAVISWMX,2013-01-23 15:38:00,
2013-01-23 10:43:00,4.7,-6.5,28.23,WSW,251,0.0,0.0,59,0.00,,,1.62,WUHU216DAVISWMX,2013-01-23 15:43:00,
2013-01-23 10:48:00,4.7,-6.5,28.23,WSW,258,0.0,0.0,59,0.00,,,1.62,WUHU216DAVISWMX,2013-01-23 15:48:00,
2013-01-23 11:19:00,6.7,-6.4,28.21,WSW,255,9.0,9.0,54,0.00,,,1.62,WUHU216DAVISWMX,2013-01-23 16:19:00,
2013-01-23 11:24:00,6.9,-6.7,28.21,WSW,248,9.0,18.0,53,0.00,,,1.62,WUHU216DAVISWMX,2013-01-23 16:24:00,
2013-01-23 11:29:00,6.7,-6.8,28.21,West,260,9.0,18.0,53,0.00,,,1.62,WUHU216DAVISWMX,2013-01-23 16:29:00,
2013-01-23 11:34:00,6.7,-7.2,28.21,WSW,239,11.0,14.0,52,0.00,,,1.62,WUHU216DAVISWMX,2013-01-23 16:34:00,
2013-01-23 11:39:00,6.9,-7.1,28.21,WSW,238,2.0,14.0,52,0.00,,,1.62,WUHU216DAVISWMX,2013-01-23 16:39:00,
2013-01-23 11:44:00,7.3,-6.3,28.20,WSW,244,8.0,14.0,53,0.00,,,1.62,WUHU216DAVISWMX,2013-01-23 16:44:00,
2013-01-23 11:49:00,7.6,-6.4,28.20,WSW,250,10.0,14.0,52,0.00,,,1.62,WUHU216DAVISWMX,2013-01-23 16:49:00,
2013-01-23 11:55:00,7.6,-6.4,28.20,WSW,241,14.0,15.0,52,0.00,,,1.62,WUHU216DAVISWMX,2013-01-23 16:55:00,
2013-01-23 12:00:00,7.9,-6.1,28.20,WSW,252,15.0,16.0,52,0.00,,,1.62,WUHU216DAVISWMX,2013-01-23 17:00:00,
2013-01-23 12:05:00,7.9,-6.5,28.19,WSW,249,10.0,16.0,51,0.00,,,1.62,WUHU216DAVISWMX,2013-01-23 17:05:00,
2013-01-23 12:10:00,8.1,-5.5,28.19,WSW,238,8.0,13.0,53,0.00,,,1.62,WUHU216DAVISWMX,2013-01-23 17:10:00,
2013-01-23 12:15:00,8.4,-5.7,28.19,SW,229,13.0,14.0,52,0.00,,,1.62,WUHU216DAVISWMX,2013-01-23 17:15:00,
2013-01-23 12:20:00,8.5,-5.6,28.19,WSW,255,16.0,16.0,52,0.00,,,1.62,WUHU216DAVISWMX,2013-01-23 17:20:00,
2013-01-23 12:25:00,8.4,-6.1,28.19,SW,233,6.0,16.0,51,0.00,,,1.62,WUHU216DAVISWMX,2013-01-23 17:25:00,
2013-01-23 12:30:00,8.7,-5.8,28.18,SW,227,7.0,13.0,51,0.00,,,1.62,WUHU216DAVISWMX,2013-01-23 17:30:00,
2013-01-23 12:35:00,8.9,-4.8,28.18,SW,235,3.0,11.0,53,0.00,,,1.62,WUHU216DAVISWMX,2013-01-23 17:35:00,
2013-01-23 12:40:00,9.0,-4.7,28.18,SW,222,6.0,11.0,53,0.00,,,1.62,WUHU216DAVISWMX,2013-01-23 17:40:00,
2013-01-23 12:45:00,9.2,-4.5,28.18,WSW,247,9.0,15.0,53,0.00,,,1.62,WUHU216DAVISWMX,2013-01-23 17:45:00,
2013-01-23 12:50:00,9.2,-4.5,28.18,WSW,248,0.0,15.0,53,0.00,,,1.62,WUHU216DAVISWMX,2013-01-23 17:50:00,
2013-01-23 12:55:00,9.2,-4.5,28.17,WSW,248,0.0,0.0,53,0.00,,,1.62,WUHU216DAVISWMX,2013-01-23 17:55:00,
2013-01-23 13:00:00,9.2,-4.5,28.17,WSW,248,0.0,0.0,53,0.00,,,1.62,WUHU216DAVISWMX,2013-01-23 18:00:00,
2013-01-23 13:05:00,9.2,-4.5,28.16,WSW,248,0.0,0.0,53,0.00,,,1.62,WUHU216DAVISWMX,2013-01-23 18:05:00,
2013-01-23 13:10:00,9.2,-4.5,28.16,WSW,248,0.0,0.0,53,0.00,,,1.62,WUHU216DAVISWMX,2013-01-23 18:10:00,
2013-01-23 13:14:00,9.2,-4.5,28.16,WSW,248,0.0,0.0,53,0.00,,,1.62,WUHU216DAVISWMX,2013-01-23 18:14:00,
2013-01-23 13:15:00,9.2,-4.5,28.16,WSW,248,0.0,0.0,53,0.00,,,1.62,WUHU216DAVISWMX,2013-01-23 18:15:00,
2013-01-23 13:20:00,9.2,-4.5,28.16,WSW,248,0.0,0.0,53,0.00,,,1.62,WUHU216DAVISWMX,2013-01-23 18:20:00,
2013-01-23 13:46:00,10.0,-4.6,28.15,West,272,5.0,5.0,51,0.00,,,1.62,WUHU216DAVISWMX,2013-01-23 18:46:00,
2013-01-23 13:51:00,10.3,-4.7,28.15,WSW,248,4.0,13.0,50,0.00,,,1.62,WUHU216DAVISWMX,2013-01-23 18:51:00,
2013-01-23 13:56:00,10.8,-3.4,28.15,SW,233,7.0,13.0,52,0.00,,,1.62,WUHU216DAVISWMX,2013-01-23 18:56:00,
2013-01-23 14:01:00,10.8,-3.8,28.15,WSW,252,7.0,14.0,51,0.00,,,1.62,WUHU216DAVISWMX,2013-01-23 19:01:00,
2013-01-23 14:06:00,10.8,-4.3,28.14,West,260,7.0,18.0,50,0.00,,,1.62,WUHU216DAVISWMX,2013-01-23 19:06:00,
2013-01-23 14:11:00,10.8,-4.3,28.15,WSW,240,0.0,18.0,50,0.00,,,1.62,WUHU216DAVISWMX,2013-01-23 19:11:00,
2013-01-23 14:16:00,10.7,-4.4,28.14,WSW,241,0.0,10.0,50,0.00,,,1.62,WUHU216DAVISWMX,2013-01-23 19:16:00,
2013-01-23 14:21:00,10.7,-4.8,28.14,WSW,241,0.0,0.0,49,0.00,,,1.62,WUHU216DAVISWMX,2013-01-23 19:21:00,
2013-01-23 14:26:00,10.8,-4.7,28.15,WSW,241,0.0,0.0,49,0.00,,,1.62,WUHU216DAVISWMX,2013-01-23 19:26:00,
2013-01-23 14:31:00,10.8,-4.7,28.14,WSW,240,0.0,0.0,49,0.00,,,1.62,WUHU216DAVISWMX,2013-01-23 19:31:00,
2013-01-23 14:36:00,10.7,-4.4,28.15,WSW,240,0.0,0.0,50,0.00,,,1.62,WUHU216DAVISWMX,2013-01-23 19:36:00,
2013-01-23 14:37:00,10.7,-4.4,28.15,WSW,241,0.0,0.0,50,0.00,,,1.62,WUHU216DAVISWMX,2013-01-23 19:37:00,
2013-01-23 14:41:00,10.7,-4.4,28.15,WSW,241,0.0,0.0,50,0.00,,,1.62,WUHU216DAVISWMX,2013-01-23 19:41:00,
2013-01-23 14:46:00,10.7,-4.4,28.15,WSW,241,0.0,0.0,50,0.00,,,1.62,WUHU216DAVISWMX,2013-01-23 19:46:00,
2013-01-23 15:01:00,10.8,-5.1,28.15,WSW,258,12.0,12.0,48,0.00,,,1.62,WUHU216DAVISWMX,2013-01-23 20:01:00,
2013-01-23 15:06:00,11.1,-4.9,28.15,WSW,243,7.0,12.0,48,0.00,,,1.62,WUHU216DAVISWMX,2013-01-23 20:06:00,
2013-01-23 15:11:00,11.0,-4.5,28.15,West,260,0.0,15.0,49,0.00,,,1.62,WUHU216DAVISWMX,2013-01-23 20:11:00,
2013-01-23 15:16:00,11.0,-4.5,28.15,West,261,0.0,15.0,49,0.00,,,1.62,WUHU216DAVISWMX,2013-01-23 20:16:00,
2013-01-23 15:21:00,11.0,-4.5,28.15,West,261,0.0,0.0,49,0.00,,,1.62,WUHU216DAVISWMX,2013-01-23 20:21:00,
2013-01-23 15:26:00,11.0,-4.5,28.15,West,261,0.0,0.0,49,0.00,,,1.62,WUHU216DAVISWMX,2013-01-23 20:26:00,
2013-01-23 15:31:00,11.0,-4.5,28.15,West,261,0.0,0.0,49,0.00,,,1.62,WUHU216DAVISWMX,2013-01-23 20:31:00,
2013-01-23 15:36:00,11.0,-4.5,28.14,West,261,0.0,0.0,49,0.00,,,1.62,WUHU216DAVISWMX,2013-01-23 20:36:00,
2013-01-23 15:38:00,10.9,-4.6,28.14,West,261,0.0,0.0,49,0.00,,,1.62,WUHU216DAVISWMX,2013-01-23 20:38:00,
2013-01-23 15:41:00,10.9,-4.6,28.14,West,261,0.0,0.0,49,0.00,,,1.62,WUHU216DAVISWMX,2013-01-23 20:41:00,
2013-01-23 15:46:00,10.9,-4.6,28.14,West,261,0.0,0.0,49,0.00,,,1.62,WUHU216DAVISWMX,2013-01-23 20:46:00,
2013-01-23 15:58:00,10.7,-4.4,28.13,SW,228,5.0,5.0,50,0.00,,,1.62,WUHU216DAVISWMX,2013-01-23 20:58:00,
2013-01-23 16:03:00,10.8,-4.3,28.14,SW,229,5.0,7.0,50,0.00,,,1.62,WUHU216DAVISWMX,2013-01-23 21:03:00,
2013-01-23 16:08:00,10.8,-4.3,28.13,SW,230,5.0,12.0,50,0.00,,,1.62,WUHU216DAVISWMX,2013-01-23 21:08:00,
2013-01-23 16:13:00,10.6,-4.5,28.13,SW,236,0.0,12.0,50,0.00,,,1.62,WUHU216DAVISWMX,2013-01-23 21:13:00,
2013-01-23 16:18:00,10.6,-4.5,28.13,SW,236,0.0,12.0,50,0.00,,,1.62,WUHU216DAVISWMX,2013-01-23 21:18:00,
2013-01-23 16:24:00,10.6,-4.5,28.13,SW,236,0.0,0.0,50,0.00,,,1.62,WUHU216DAVISWMX,2013-01-23 21:24:00,
2013-01-23 16:29:00,10.6,-4.5,28.13,SW,236,0.0,0.0,50,0.00,,,1.62,WUHU216DAVISWMX,2013-01-23 21:29:00,
2013-01-23 16:34:00,10.6,-4.5,28.13,SW,236,0.0,0.0,50,0.00,,,1.62,WUHU216DAVISWMX,2013-01-23 21:34:00,
2013-01-23 16:39:00,10.6,-4.5,28.14,SW,236,0.0,0.0,50,0.00,,,1.62,WUHU216DAVISWMX,2013-01-23 21:39:00,
2013-01-23 16:41:00,10.6,-4.5,28.14,SW,236,0.0,0.0,50,0.00,,,1.62,WUHU216DAVISWMX,2013-01-23 21:41:00,
2013-01-23 16:44:00,10.6,-4.5,28.14,SW,236,0.0,0.0,50,0.00,,,1.62,WUHU216DAVISWMX,2013-01-23 21:44:00,
2013-01-23 16:49:00,10.6,-4.5,28.14,SW,236,0.0,0.0,50,0.00,,,1.62,WUHU216DAVISWMX,2013-01-23 21:49:00,
2013-01-23 17:00:00,7.3,-7.1,28.13,WNW,283,3.0,3.0,51,0.00,,,1.62,WUHU216DAVISWMX,2013-01-23 22:00:00,
2013-01-23 17:05:00,10.6,-3.6,28.13,SW,227,0.0,10.0,52,0.00,,,1.62,WUHU216DAVISWMX,2013-01-23 22:05:00,
2013-01-23 17:10:00,10.8,-3.4,28.13,WSW,240,4.0,10.0,52,0.00,,,1.62,WUHU216DAVISWMX,2013-01-23 22:10:00,
2013-01-23 17:15:00,10.6,-3.6,28.12,SW,235,4.0,10.0,52,0.00,,,1.62,WUHU216DAVISWMX,2013-01-23 22:15:00,
2013-01-23 17:20:00,10.6,-3.6,28.13,WSW,246,2.0,10.0,52,0.00,,,1.62,WUHU216DAVISWMX,2013-01-23 22:20:00,
2013-01-23 17:25:00,10.6,-3.6,28.12,WSW,245,2.0,8.0,52,0.00,,,1.62,WUHU216DAVISWMX,2013-01-23 22:25:00,
2013-01-23 17:30:00,10.6,-3.2,28.12,WSW,245,1.0,5.0,53,0.00,,,1.62,WUHU216DAVISWMX,2013-01-23 22:30:00,
2013-01-23 17:35:00,10.6,-3.2,28.12,WSW,238,4.0,9.0,53,0.00,,,1.62,WUHU216DAVISWMX,2013-01-23 22:35:00,
2013-01-23 17:40:00,10.6,-3.2,28.12,SW,236,3.0,9.0,53,0.00,,,1.62,WUHU216DAVISWMX,2013-01-23 22:40:00,
2013-01-23 17:45:00,10.6,-3.2,28.12,WSW,258,3.0,10.0,53,0.00,,,1.62,WUHU216DAVISWMX,2013-01-23 22:45:00,
2013-01-23 17:50:00,10.6,-3.2,28.12,SW,234,8.0,10.0,53,0.00,,,1.62,WUHU216DAVISWMX,2013-01-23 22:50:00,
2013-01-23 17:55:00,10.6,-3.2,28.11,SW,232,0.0,10.0,53,0.00,,,1.62,WUHU216DAVISWMX,2013-01-23 22:55:00,
2013-01-23 18:00:00,10.7,-3.1,28.12,SW,232,0.0,8.0,53,0.00,,,1.62,WUHU216DAVISWMX,2013-01-23 23:00:00,
2013-01-23 18:05:00,10.8,-3.0,28.12,SW,232,0.0,0.0,53,0.00,,,1.62,WUHU216DAVISWMX,2013-01-23 23:05:00,
2013-01-23 18:10:00,10.7,-3.1,28.12,SW,232,0.0,0.0,53,0.00,,,1.62,WUHU216DAVISWMX,2013-01-23 23:10:00,
2013-01-23 18:15:00,10.7,-3.1,28.12,SW,232,0.0,0.0,53,0.00,,,1.62,WUHU216DAVISWMX,2013-01-23 23:15:00,
2013-01-23 18:20:00,10.7,-3.1,28.11,SW,232,0.0,0.0,53,0.00,,,1.62,WUHU216DAVISWMX,2013-01-23 23:20:00,
2013-01-23 18:22:00,10.7,-3.1,28.11,SW,232,0.0,0.0,53,0.00,,,1.62,WUHU216DAVISWMX,2013-01-23 23:22:00,
2013-01-23 18:25:00,10.7,-3.1,28.11,SW,232,0.0,0.0,53,0.00,,,1.62,WUHU216DAVISWMX,2013-01-23 23:25:00,
2013-01-23 18:30:00,10.7,-3.1,28.11,SW,232,0.0,0.0,53,0.00,,,1.62,WUHU216DAVISWMX,2013-01-23 23:30:00,
2013-01-23 18:48:00,10.7,-1.9,28.10,SW,235,4.0,4.0,56,0.00,,,1.62,WUHU216DAVISWMX,2013-01-23 23:48:00,
2013-01-23 18:53:00,10.7,-1.9,28.10,SW,224,3.0,6.0,56,0.00,,,1.62,WUHU216DAVISWMX,2013-01-23 23:53:00,
2013-01-23 18:58:00,10.7,-1.9,28.10,SW,233,5.0,8.0,56,0.00,,,1.62,WUHU216DAVISWMX,2013-01-23 23:58:00,
2013-01-23 19:03:00,10.7,-1.9,28.10,SW,233,4.0,8.0,56,0.00,,,1.62,WUHU216DAVISWMX,2013-01-24 00:03:00,
2013-01-23 19:08:00,10.8,-1.8,28.10,SW,233,0.0,7.0,56,0.00,,,1.62,WUHU216DAVISWMX,2013-01-24 00:08:00,
2013-01-23 19:13:00,10.8,-1.4,28.09,SW,233,0.0,5.0,57,0.00,,,1.62,WUHU216DAVISWMX,2013-01-24 00:13:00,
2013-01-23 19:18:00,10.8,-1.8,28.09,SW,233,0.0,0.0,56,0.00,,,1.62,WUHU216DAVISWMX,2013-01-24 00:18:00,
2013-01-23 19:23:00,10.7,-1.9,28.10,SW,234,0.0,0.0,56,0.00,,,1.62,WUHU216DAVISWMX,2013-01-24 00:23:00,
2013-01-23 19:28:00,10.8,-1.4,28.09,SW,233,0.0,0.0,57,0.00,,,1.62,WUHU216DAVISWMX,2013-01-24 00:28:00,
2013-01-23 19:33:00,10.7,-1.5,28.10,SW,233,0.0,0.0,57,0.00,,,1.62,WUHU216DAVISWMX,2013-01-24 00:33:00,
2013-01-23 19:34:00,10.7,-1.5,28.10,SW,233,0.0,0.0,57,0.00,,,1.62,WUHU216DAVISWMX,2013-01-24 00:34:00,
2013-01-23 19:38:00,10.7,-1.5,28.10,SW,233,0.0,0.0,57,0.00,,,1.62,WUHU216DAVISWMX,2013-01-24 00:38:00,
2013-01-23 19:43:00,10.7,-1.5,28.10,SW,233,0.0,0.0,57,0.00,,,1.62,WUHU216DAVISWMX,2013-01-24 00:43:00,
2013-01-23 20:02:00,10.4,-0.4,28.09,SW,235,2.0,2.0,61,0.00,,,1.62,WUHU216DAVISWMX,2013-01-24 01:02:00,
2013-01-23 20:07:00,10.5,0.1,28.09,WSW,238,0.0,5.0,62,0.00,,,1.62,WUHU216DAVISWMX,2013-01-24 01:07:00,
2013-01-23 20:12:00,10.5,0.4,28.09,SSW,209,0.0,5.0,63,0.00,,,1.62,WUHU216DAVISWMX,2013-01-24 01:12:00,
2013-01-23 20:17:00,10.4,0.7,28.10,SSW,211,0.0,4.0,64,0.00,,,1.62,WUHU216DAVISWMX,2013-01-24 01:17:00,
2013-01-23 20:22:00,10.3,0.9,28.10,SSW,212,0.0,4.0,65,0.00,,,1.62,WUHU216DAVISWMX,2013-01-24 01:22:00,
2013-01-23 20:27:00,10.3,0.9,28.09,SSW,212,0.0,2.0,65,0.00,,,1.62,WUHU216DAVISWMX,2013-01-24 01:27:00,
2013-01-23 20:32:00,10.3,0.9,28.09,SSW,212,0.0,0.0,65,0.00,,,1.62,WUHU216DAVISWMX,2013-01-24 01:32:00,
2013-01-23 20:37:00,10.3,0.9,28.09,SSW,212,0.0,0.0,65,0.00,,,1.62,WUHU216DAVISWMX,2013-01-24 01:37:00,
2013-01-23 20:42:00,10.3,0.9,28.09,SSW,212,0.0,0.0,65,0.00,,,1.62,WUHU216DAVISWMX,2013-01-24 01:42:00,
2013-01-23 20:47:00,10.2,0.8,28.09,SSW,212,0.0,0.0,65,0.00,,,1.62,WUHU216DAVISWMX,2013-01-24 01:47:00,
2013-01-23 20:50:00,10.3,0.9,28.09,SW,226,0.0,0.0,65,0.00,,,1.62,WUHU216DAVISWMX,2013-01-24 01:50:00,
2013-01-23 20:52:00,10.3,0.9,28.09,SW,226,0.0,0.0,65,0.00,,,1.62,WUHU216DAVISWMX,2013-01-24 01:52:00,
2013-01-23 20:57:00,10.3,0.9,28.09,SW,226,0.0,0.0,65,0.00,,,1.62,WUHU216DAVISWMX,2013-01-24 01:57:00,
2013-01-23 21:30:00,9.9,3.0,28.08,South,190,2.0,2.0,73,0.00,,,1.62,WUHU216DAVISWMX,2013-01-24 02:30:00,
2013-01-23 21:35:00,10.0,3.4,28.08,SSW,199,0.0,5.0,74,0.00,,,1.62,WUHU216DAVISWMX,2013-01-24 02:35:00,
2013-01-23 21:40:00,10.0,3.4,28.08,SSW,199,0.0,5.0,74,0.00,,,1.62,WUHU216DAVISWMX,2013-01-24 02:40:00,
2013-01-23 21:45:00,10.0,3.4,28.08,SSW,199,0.0,3.0,74,0.00,,,1.62,WUHU216DAVISWMX,2013-01-24 02:45:00,
2013-01-23 21:50:00,10.2,3.6,28.08,SSW,199,0.0,0.0,74,0.00,,,1.62,WUHU216DAVISWMX,2013-01-24 02:50:00,
2013-01-23 21:55:00,10.0,3.4,28.07,SSW,199,0.0,0.0,74,0.00,,,1.62,WUHU216DAVISWMX,2013-01-24 02:55:00,
2013-01-23 22:00:00,10.0,3.4,28.07,SSW,199,0.0,0.0,74,0.00,,,1.62,WUHU216DAVISWMX,2013-01-24 03:00:00,
2013-01-23 22:05:00,10.0,3.4,28.07,SSW,199,0.0,0.0,74,0.00,,,1.62,WUHU216DAVISWMX,2013-01-24 03:05:00,
2013-01-23 22:10:00,10.0,3.4,28.07,SSW,199,0.0,0.0,74,0.00,,,1.62,WUHU216DAVISWMX,2013-01-24 03:10:00,
2013-01-23 22:15:00,10.0,3.4,28.07,SSW,199,0.0,0.0,74,0.00,,,1.62,WUHU216DAVISWMX,2013-01-24 03:15:00,
2013-01-23 22:20:00,10.0,3.4,28.07,SSW,199,0.0,0.0,74,0.00,,,1.62,WUHU216DAVISWMX,2013-01-24 03:20:00,
2013-01-23 22:25:00,10.0,3.4,28.07,SSW,199,0.0,0.0,74,0.00,,,1.62,WUHU216DAVISWMX,2013-01-24 03:25:00,
2013-01-23 22:27:00,10.0,3.4,28.07,SSW,199,0.0,0.0,74,0.00,,,1.62,WUHU216DAVISWMX,2013-01-24 03:27:00,
2013-01-23 22:30:00,10.0,3.4,28.07,SSW,199,0.0,0.0,74,0.00,,,1.62,WUHU216DAVISWMX,2013-01-24 03:30:00,
2013-01-23 22:35:00,10.0,3.4,28.07,SSW,199,0.0,0.0,74,0.00,,,1.62,WUHU216DAVISWMX,2013-01-24 03:35:00,
2013-01-23 23:02:00,9.6,3.3,28.06,SSW,203,0.0,0.0,75,0.00,,,1.62,WUHU216DAVISWMX,2013-01-24 04:02:00,
2013-01-23 23:07:00,9.6,3.6,28.05,SSW,199,0.0,0.0,76,0.00,,,1.62,WUHU216DAVISWMX,2013-01-24 04:07:00,
2013-01-23 23:12:00,9.7,3.7,28.05,SSW,199,0.0,0.0,76,0.00,,,1.62,WUHU216DAVISWMX,2013-01-24 04:12:00,
2013-01-23 23:17:00,9.8,3.8,28.05,SSW,199,0.0,0.0,76,0.00,,,1.62,WUHU216DAVISWMX,2013-01-24 04:17:00,
2013-01-23 23:22:00,9.7,3.7,28.05,SSW,199,0.0,0.0,76,0.00,,,1.62,WUHU216DAVISWMX,2013-01-24 04:22:00,
2013-01-23 23:27:00,9.7,3.7,28.05,SSW,199,0.0,0.0,76,0.00,,,1.62,WUHU216DAVISWMX,2013-01-24 04:27:00,
2013-01-23 23:32:00,9.5,3.5,28.05,SSW,199,0.0,0.0,76,0.00,,,1.62,WUHU216DAVISWMX,2013-01-24 04:32:00,
2013-01-23 23:37:00,9.5,3.5,28.04,SSW,199,0.0,0.0,76,0.00,,,1.62,WUHU216DAVISWMX,2013-01-24 04:37:00,
2013-01-23 23:42:00,9.5,3.8,28.03,SSW,199,0.0,0.0,77,0.00,,,1.62,WUHU216DAVISWMX,2013-01-24 04:42:00,
2013-01-23 23:47:00,9.5,3.8,28.04,SSW,199,0.0,0.0,77,0.00,,,1.62,WUHU216DAVISWMX,2013-01-24 04:47:00,
2013-01-23 23:52:00,9.5,3.8,28.03,SSW,199,0.0,0.0,77,0.00,,,1.62,WUHU216DAVISWMX,2013-01-24 04:52:00,
2013-01-23 23:57:00,9.5,3.8,28.03,SSW,199,0.0,0.0,77,0.00,,,1.62,WUHU216DAVISWMX,2013-01-24 04:57:00,